Regional Weather Roundup
Issued by NWS Grand Forks, ND

Home | Current Version | Previous Version | Text Only | Print | Product List | Glossary Off
Versions: 1 2 3 4 5 6 7 8 9 10 11 12 13 14 15 16 17 18 19 20 21 22 23 24 25 26 27 28 29 30 31 32 33 34 35 36 37 38 39 40 41 42 43 44 45 46 47 48 49 50

000
ASUS43 KFGF 061010
RWRFGF
PRAIRIE TO PINES  WEATHER ROUNDUP
NATIONAL WEATHER SERVICE EASTERN NORTH DAKOTA/GRAND FORKS ND
400 AM CST TUE DEC 06 2016

 **SATELLITE DATA USED TO AUGMENT SKY COVER AT AUTOMATED STATIONS**
 *****  WEATHER ACROSS EASTERN NORTH DAKOTA  *****

CITY           SKY/WX    TMP DP  RH WIND       PRES   REMARKS
GRAND FORKS    CLOUDY    30  27  88 N20       29.31F FOG     WCI  17
GRAND FRKS AFB CLOUDY    28  28 100 N22       29.32F FOG     WCI  15
GRAND FRKS NWS   N/A     28 N/A N/A N7          N/A  WCI  21
DEVILS LAKE    LGT SNOW  26  25  96 N29G38    29.45F VSB 1   WCI  10
FARGO          CLOUDY    24  19  81 S20       29.43F WCI  10
WAHPETON ARPT  CLOUDY    21  14  73 SW25      29.55F WCI   4
$$

 ***** WEATHER ACROSS CENTRAL AND WESTERN NORTH DAKOTA  *****

CITY           SKY/WX    TMP DP  RH WIND       PRES   REMARKS
BISMARCK       LGT SNOW  13  11  92 NW26G41   29.74R VSB 1   WCI  -7
MINOT          HVY SNOW  13  10  88 W37G44    29.72S VSB 1/4 WCI -10
JAMESTOWN      SNOW      25  23  92 NW32G40   29.46S VSB 1/2 WCI   8
MINOT AFB      NOT AVBL
GARRISON         N/A     10   7  87 NW36G47   29.73R WCI -14
WILLISTON      LGT SNOW   7   2  80 NW23G30   29.98R WCI -14
DICKINSON      MIX PCPN   5   0  79 NW36G44   29.84R WCI -21
HETTINGER      CLOUDY     6   0  76 NW31G43   29.87R WCI -18
$$

 *****  OTHER AIRPORT OBSERVATIONS IN OUR AREA  *****

CITY           SKY/WX    TMP DP  RH WIND       PRES   REMARKS
WALHALLA       LGT SNOW  28  28 100 N25G35    29.42F VSB 3/4 WCI  14
GRAFTON AIRPOR FOG       30  30 100 N24G33    29.34F VSB 1   WCI  16
VALLEY CITY AR LGT SNOW  27  27 100 W22G28    29.43F WCI  12
CANDO          LGT SNOW  27  25  93 N28G35    29.52F WCI  11
CAVALIER APRT  SNOW      28  28 100 N21G31    29.38F VSB 1/2 WCI  15
GWINNER          N/A     21  19  93 W25G32    29.51S WCI   4
SHEYENNE NWR     N/A     20  15  81 W17       29.95S WCI   5
ROLLA          SNOW      23  23 100 N32G39    29.55S VSB 1/2 WCI   5
 ***** THE ABOVE OBSERVATIONS ARE NON NWS ARE NOT QUALITY
       CONTROLLED AND MAY MIS-REPORT RAIN FOR SNOW...
$$

  *****  WEATHER ACROSS NORTHERN MINNESOTA  *****

CITY           SKY/WX    TMP DP  RH WIND       PRES   REMARKS
FLAG ISLAND    LGT SNOW  30  28  93 E13G20    29.34F VSB 3/4 WCI  20
WARROAD        LGT SNOW  34  28  80 SE12      29.32F
ROSEAU         LGT SNOW  34  28  80 SE9       29.30F
HALLOCK        LGT SNOW  30  28  93 N18       29.31F WCI  18
THF RVR FALLS  LGT SNOW  26  25  96 S25G37    29.31R VSB 1   WCI  11
BAUDETTE       CLOUDY    33  31  92 S21G30    29.35S WCI  21
WASKISH        CLOUDY    30  30 100 S12G21    29.40R WCI  21
CROOKSTON      LGT SNOW  28  28 100 S17       29.33S WCI  16
$$
  *****  WEATHER ACROSS CENTRAL AND WEST MINNESOTA  *****

CITY           SKY/WX    TMP DP  RH WIND       PRES   REMARKS
FOSSTON        CLOUDY    19  19 100 S28G40    29.39F WCI   1
BEMIDJI        CLOUDY    25  21  85 SW17G26   29.42F WCI  11
PARK RAPIDS    CLOUDY    21  14  74 S13G25    29.49F WCI   9
ELBOW LAKE     CLOUDY    18  13  80 SW24G32   29.60F WCI   0
WADENA         MIX PCPN  18  14  86 SW17G24   29.54R WCI   2
DETROIT LAKES  CLOUDY    21  18  86 SW18G26   29.49S WCI   6
MOORHEAD       CLOUDY    21  18  86 S17G26    29.46F WCI   7
FERGUS FALLS   CLOUDY    19  12  73 SW28      29.59F WCI   1
MORRIS MN      CLOUDY    19  14  79 SW23G32   29.63F WCI   2
STAPLES        CLOUDY    19  16  86 SW14      29.58R WCI   6
$$
  *****  WEATHER ELSEWHERE ACROSS MINNESOTA  *****

CITY           SKY/WX    TMP DP  RH WIND       PRES   REMARKS
DULUTH         CLOUDY    34  30  85 SW21G28   29.56S WCI  22
INTRNTL FALLS  CLOUDY    34  31  88 S7        29.43S FOG
ELY            CLOUDY    34  34 100 S15G21    29.52F WCI  24
CLOQUET        CLOUDY    34  28  80 S15G23    29.55F WCI  24
WHEATON        CLOUDY    19  14  79 SW18G32   29.65R WCI   4
BRAINERD       CLOUDY    24  19  81 SW18      29.58R WCI  10
HIBBING        CLOUDY    32  28  85 S8        29.51S WCI  25
ALEXANDRIA     CLOUDY    19  13  77 SW21G31   29.61S WCI   3
SAINT CLOUD    CLOUDY    24  18  77 SW21G30   29.67S WCI   9
MINNEAPOLIS    CLOUDY    30  21  69 W16G23    29.72S WCI  19
$$

  *****  WEATHER ACROSS SOUTH DAKOTA  *****

CITY           SKY/WX    TMP DP  RH WIND       PRES   REMARKS
SIOUX FALLS    MOCLDY    17  10  74 W18G31    29.84F WCI   1
BROOKINGS      FLURRIES  14   8  77 W23G29    29.76  WCI  -5
WATERTOWN      LGT SNOW  14   8  77 W26G39    29.68F WCI  -6
HURON          MOCLDY    15   7  70 W22G29    29.85R WCI  -3
SISSETON         N/A     18  10  71 W18G33    29.60R WCI   2
ABERDEEN       FLURRIES  17   8  67 W30G39    29.68F WCI  -3
MITCHELL       MOCLDY    17  11  77 W15       29.89S WCI   2
PIERRE         CLOUDY    14   6  70 W26G38    29.89S WCI  -6
MOBRIDGE       MIX PCPN  13   7  77 NW30G43   29.76R WCI  -8
RAPID CITY     CLEAR      8   1  73 CALM      29.92S
$$

  *****  SOME WEATHER IN NEARBY STATES *****

CITY           SKY/WX    TMP DP  RH WIND       PRES   REMARKS
GLASGOW MT     CLOUDY     4  -3  73 W24       30.09S WCI -19
GREAT FALLS MT CLOUDY     5   1  83 N6        30.11R WCI  -6
CHEYENNE WY    CLEAR      8  -9  45 W22       29.86F WCI -12
SCOTTSBLUFF NE CLEAR      6   1  80 NW5       29.98F WCI  -3
OMAHA NE       CLOUDY    29  18  63 NW13      29.93F WCI  19
DES MOINES IA  FLURRIES  34  28  79 NW18G26   29.87R WCI  23
DAVENPORT IA   FOG       32  32 100 E7        29.81F VSB 1/2
CHICAGO IL     PTCLDY    30  29  96 E3        29.82F FOG
EAU CLAIRE WI  LGT SNOW  32  32 100 S9        29.72F VSB 3/4 WCI  24
LA CROSSE WI   CLOUDY    36  31  82 S8        29.79F
$$

  *****  SOME NATIONAL WEATHER *****

CITY           SKY/WX    TMP DP  RH WIND       PRES   REMARKS
LA GUARDIA NY  MOCLDY    43  29  57 NW9       30.12S
RALEIGH NC     MOCLDY    47  42  83 E8        29.98S
ATLANTA GA     LGT RAIN  52  52 100 E13       29.77F VSB 1/2
NEW ORLEANS LA MOCLDY    58  56  93 W20G25    29.79R
OKLAHOMA CITY  CLOUDY    43  42  97 N16G25    29.83R FOG
ALBUQUERQUE NM CLOUDY    35  17  47 SE7       29.93F
SALT LAKE CITY MOCLDY    23  11  60 S3        29.95F
LOS ANGELES CA MOCLDY    57  52  83 E5        29.97S
BOISE ID       CLOUDY    26  10  50 SE14      29.93S WCI  14
SEATTLE WA     CLOUDY    34  32  92 N7        30.02R FOG
$$

*** WEATHER ACROSS MANITOBA...SASKATCHEWAN AND ONTARIO ***
                ***ONTARIO***

CITY           SKY/WX    TMP DP  RH WIND       PRES   REMARKS
GERALDTON      CLOUDY    27  25  93 E8        29.84F WCI  18
THUNDER BAY    CLOUDY    39  36  87 E14G21    29.69F
SIOUX LOOKOUT  LGT SNOW  30  28  93 E8G18     29.57F WCI  23
TORONTO        PTCLDY    32  30  93 S3        30.05F
BIG TROUT LK   FLURRIES  23  23 100 E5        29.88F WCI  17
PICKLE LAKE    NOT AVBL
DRYDEN         FLURRIES  30  30 100 E16G24    29.47F WCI  19
KENORA         LGT SNOW  30  28  93 E16       29.41F WCI  19
$$
                *** MANITOBA***

CITY           SKY/WX    TMP DP  RH WIND       PRES   REMARKS
BRANDON        FLURRIES  25  21  86 N17G23    29.67S WCI  11
DAUPHIN        CLOUDY    21  19  93 N22G30    29.81S FOG     WCI   5
ISLAND LAKE    NOT AVBL
PILOT MOUND      N/A     25  25 100 N21G26      N/A  WCI  10
THE PAS        CLOUDY    18  14  86 NW14      29.95R WCI   4
THOMPSON       FLURRIES  21  19  93 NE5       29.92S WCI  15
WINNIPEG       SNOW      30  28  93 N30G38    29.47F VSB 1/2 WCI  15
LYNN LAKE      FLURRIES  18  16  93 NE3       29.91S
CHURCHILL      MOCLDY    25  23  93 N6        29.97R WCI  18
GILLAM         FLURRIES  19  18  93 N2        29.95S
$$
                ***SASKATCHEWAN***

CITY           SKY/WX    TMP DP  RH WIND       PRES   REMARKS
ESTEVAN        SNOW       7   3  85 NW33G41   29.89R VSB 1/2 WCI -18
KINDERSLEY     CLOUDY    -2  -9  71 NW16      30.14S WCI -23
LLOYDMINSTER   CLEAR     -4 -11  71 NW14G22   30.17R WCI -24
PRINCE ALBERT  FLURRIES   5  -2  72 NW12G18   30.07R WCI -11
REGINA         CLOUDY     7   1  78 NW22      30.00S WCI -14
YORKTON        LGT SNOW  10   7  85 NW17G26   29.90S WCI  -7
N. BATTLEFORD  CLOUDY    -2  -8  78 NW15G21   30.17S WCI -22
LA RONGE       FLURRIES   3  -2  78 NW12      30.07R WCI -13
SASKATOON      FLURRIES   5  -4  66 NW16G22   30.11S WCI -14
SWIFT CURRENT  FLURRIES  -6  -8  92 NW16G23   30.05R WCI -28
$$
NOTE: THESE ARE AUTOMATED STATIONS WITH LIMITED QUALITY CONTROL
      "FAIR" INDICATES FEW OR NO CLOUDS BELOW 12,000 FEET WITH NO
      SIGNIFICANT WEATHER AND/OR OBSTRUCTIONS TO VISIBILITY.
      SKY/WX - SKY CONDITION AND SIGNIFICANT WEATHER.
      TMP - AIR TEMPERATURE.    DP   - DEWPOINT TEMPERATURE.
      RH  - RELATIVE HUMIDITY.  PRES - PRESSURE.
      HX  - HEAT INDEX.         WCI  - WIND CHILL INDEX.
$



USA.gov is the U.S. government's official web portal to all federal, state and local government web resources and services.